Regional Weather Roundup
Issued by NWS

Home | Current Version | Previous Version | Graphics & Text | Print | Product List | Glossary On
Versions: 1 2 3 4 5 6 7 8 9 10 11 12 13 14 15 16 17 18 19 20 21 22 23 24 25 26 27 28 29 30 31 32 33 34 35 36 37 38 39 40 41 42 43 44 45 46 47 48 49 50
000
ASUS43 KMPX 022001
RWRMN
WEATHER ROUNDUP FOR MINNESOTA
NATIONAL WEATHER SERVICE TWIN CITIES/CHANHASSEN MN
200 PM CST MON MAR 02 2015


NOTE: "FAIR" INDICATES FEW OR NO CLOUDS BELOW 12,000 FEET WITH NO
SIGNIFICANT WEATHER AND/OR OBSTRUCTIONS TO VISIBILITY. N/A MEANS
CURRENT SKY AND/OR WEATHER CONDITIONS ARE NOT AVAILABLE.

MNZ060>063-068>070-022100-
   Twin Cities Metro

CITY           SKY/WX    TMP DP  RH WIND       PRES   REMARKS
TWIN CITIES    MOSUNNY   24   4  42 S13       30.36  WCI  12
ST PAUL        SUNNY     27   6  41 S14       30.38  WCI  16
CRYSTAL        SUNNY     27   6  41 S9        30.34F WCI  18
BLAINE         MOSUNNY   28   7  40 S15       30.34  WCI  17
LAKEVILLE      FAIR      21   9  58 S6        30.36F WCI  14
EDEN PRAIRIE   SUNNY     25   6  44 S10       30.34  WCI  15
SOUTH ST PAUL  SUNNY     26   6  42 S10G17    30.36F WCI  17
LAKE ELMO      FAIR      27  10  50 S12       30.36F WCI  16
$$
MNZ001>005-007-008-013>017-022>024-027-028-022100-
   Northwest Minnesota

CITY           SKY/WX    TMP DP  RH WIND       PRES   REMARKS
BEMIDJI        SUNNY     26   6  43 S12G20    30.17F WCI  16
HALLOCK        MOSUNNY   23  16  74 S23       30.08F WCI   7
ROSEAU         SUNNY     25  12  58 S15       30.12F WCI  12
WARROAD        SUNNY     25  10  54 S9        30.13F WCI  15
THIEF RVR FALL SUNNY     21  10  63 S21       30.12F WCI   6
CROOKSTON      SUNNY     27  16  63 S22G29    30.13F WCI  12
FOSSTON        SUNNY     27  10  50 S15       30.14F WCI  15
DETROIT LAKES  SUNNY     27  12  54 S21G26    30.16F HAZE    WCI  13
MOORHEAD       SUNNY     30   9  40 S23G30    30.14F WCI  17
PARK RAPIDS    SUNNY     26   7  44 S18       30.19  WCI  13
MAHNOMEN       FAIR      25  10  52 S16G23    30.17F WCI  12
$$
MNZ006-009>011-018-025>026-022100-
   North Central Minnesota

CITY           SKY/WX    TMP DP  RH WIND       PRES   REMARKS
BAUDETTE       MOSUNNY   24  11  57 S10       30.13F WCI  14
FLAG ISLAND    SUNNY     16  10  79 SE12      30.12F WCI   3
INTL FALLS     SUNNY     25   6  44 MISG      30.17
WASKISH        SUNNY     27  12  54 CALM      30.16F
BIG FORK       SUNNY     28  10  47 S9        30.19F WCI  20
LONGVILLE      SUNNY     28   5  37 SW9       30.21F WCI  20
GRAND RAPIDS   SUNNY     25   9  50 S9        30.21F WCI  15
CRANE LAKE     SUNNY     25   0  33 SW8G16    30.23F WCI  16
ORR            FAIR      27   3  36 SW8       30.17F WCI  18
COOK           SUNNY     25   7  46 S10       30.20F WCI  15
WALKER         FAIR      26   6  42 S13G18    30.20F WCI  15
$$
MNZ012-019>021-037-022100-
   Northeast Minnesota

CITY           SKY/WX    TMP DP  RH WIND       PRES   REMARKS
DULUTH         SUNNY     25   8  48 SW9       30.23  WCI  15
ELY            SUNNY     25   3  39 SW9       30.21F WCI  15
HIBBING        SUNNY     25   6  44 S8        30.20  WCI  16
EVELETH        SUNNY     27  10  50 CALM      30.22F
DULUTH HARBOR  SUNNY     28   7  40 CALM      30.30F
TWO HARBORS    SUNNY     28  12  50 S9G18     30.24F WCI  20
SILVER BAY     SUNNY     28  10  47 S12       30.24F WCI  18
GRAND MARAIS     N/A     24  14  65 SW13      30.31  WCI  12
G MARAIS ARPRT SUNNY     19   7  58 S9        30.22F WCI   9
$$
MNZ029>031-032-039>041-046>048-054>057-064-022100-
   West Central Minnesota

CITY           SKY/WX    TMP DP  RH WIND       PRES   REMARKS
FERGUS FALLS   SUNNY     27  10  50 S21G26    30.21F WCI  13
WHEATON        MOSUNNY   25  16  68 SE23      30.19F WCI  10
MORRIS         MOSUNNY   27  14  59 S20       30.20F WCI  13
ALEXANDRIA     SUNNY     25  10  53 S16G24    30.22F WCI  12
ELBOW LAKE     FAIR      26  13  57 S21       30.19F WCI  12
WADENA         SUNNY     25  10  54 S17       30.21F WCI  11
GLENWOOD       SUNNY     27  12  54 S17       30.24F WCI  14
APPLETON       PTSUNNY   30  16  55 S13G22    30.22F WCI  20
BENSON         PTSUNNY   30  10  43 S15       30.23F WCI  19
ORTONVILLE     PTSUNNY   28  12  50 S17       30.19F WCI  16
MADISON        MOSUNNY   30  18  59 S20       30.21F WCI  18
WILLMAR        FAIR      28  10  47 S14G20    30.28F WCI  17
$$
MNZ033>034-036-042>043-049>051-058-059-022100-
   Central Minnesota

CITY           SKY/WX    TMP DP  RH WIND       PRES   REMARKS
ST CLOUD       SUNNY     26   8  46 SW14      30.31  WCI  14
SAUK CENTRE    FAIR      27  10  48 S15       30.26F WCI  15
PAYNESVILLE    SUNNY     24   9  53 SE14G22   30.28F WCI  12
AITKIN         SUNNY     28   7  40 S12G18    30.24F WCI  18
PINE RIVER     SUNNY     27   9  46 S13       30.25F WCI  16
BRAINERD       SUNNY     25   9  50 S14G22    30.26F WCI  13
STAPLES        SUNNY     25   9  50 S12       30.23F WCI  14
LONG PRAIRIE   FAIR      27  12  54 SE16G22   30.25F WCI  14
LITTLE FALLS   SUNNY     27   9  46 S12       30.28F WCI  16
LITCHFIELD     SUNNY     27  12  54 S7        30.30F WCI  19
BUFFALO        SUNNY     26   9  49 S8G16     30.34F WCI  17
MAPLE LAKE     SUNNY     27  13  55 S12G18    30.33F WCI  17
$$
MNZ037-044-045-052-053-022100-
   East Central Minnesota

CITY           SKY/WX    TMP DP  RH WIND       PRES   REMARKS
PRINCETON      SUNNY     27   9  46 S10       30.32F WCI  17
MORA           SUNNY     27   9  46 S10G16    30.33F WCI  17
CAMBRIDGE      SUNNY     27  10  50 S9        30.32F WCI  17
RUSH CITY      SUNNY     26   7  43 SW9       30.33F WCI  17
MOOSE LAKE     SUNNY     28   9  43 S10G16    30.26F WCI  19
HINCKLEY         N/A     27  12  54 S10       30.31F WCI  17
CLOQUET        SUNNY     25   3  39 S9        30.25F WCI  15
MCGREGOR       SUNNY     28  10  47 SW8G17    30.26F WCI  20
$$
MNZ071>073-080-081-089-090-097-098-022100-
   Southwest Minnesota

CITY           SKY/WX    TMP DP  RH WIND       PRES   REMARKS
MONTEVIDEO     CLOUDY    28  16  59 S15G22    30.25F WCI  17
GRANITE FALLS  PTSUNNY   27  15  60 SE17      30.27F WCI  15
CANBY          PTSUNNY   28  17  62 S16       30.22F WCI  16
MARSHALL       MOSUNNY   28  12  50 S18       30.25F WCI  16
REDWOOD FALLS  MOSUNNY   26  14  60 S16       30.29  WCI  14
OLIVIA         SUNNY     28  14  54 S13G18    30.28F WCI  18
PIPESTONE      PTSUNNY   25  18  74 S16       30.19F WCI  12
WINDOM         PTSUNNY   25  14  63 S10       30.26F WCI  15
WORTHINGTON    CLOUDY    25  16  68 S14       30.26F WCI  13
JACKSON        PTSUNNY   27  14  59 S13       30.28F WCI  16
TRACY          PTSUNNY   28  17  65 S14       30.24F WCI  16
SLAYTON        PTSUNNY   26  15  63 SE18      30.23F WCI  12
$$
MNZ065>067-074>077-082>085-091>093-022100-
   South Central Minnesota

CITY           SKY/WX    TMP DP  RH WIND       PRES   REMARKS
MANKATO        SUNNY     25   9  50 S12       30.34F WCI  14
NEW ULM        CLOUDY    25  12  58 S12       30.31F WCI  14
ST JAMES       CLOUDY    27  16  63 S10       30.33F WCI  17
FAIRMONT       CLOUDY    25  14  63 S13       30.31F WCI  13
GLENCOE        SUNNY     28  15  59 SE9       30.32F WCI  19
FARIBAULT      SUNNY     25   9  50 S10       30.36F WCI  15
OWATONNA       SUNNY     21   9  58 S10       30.35F WCI  10
WASECA         SUNNY     23  12  63 S12       30.38F WCI  12
ALBERT LEA     MOSUNNY   21  10  63 S7        30.35F WCI  13
$$
MNZ078>079-086>088-094>096-022100-
   Southeast Minnesota

CITY           SKY/WX    TMP DP  RH WIND       PRES   REMARKS
ROCHESTER      MOSUNNY   19   8  62 SW8       30.37  WCI   9
RED WING       SUNNY     25   5  42 S9        30.38F WCI  15
STANTON        SUNNY     24   8  52 S13       30.35F WCI  12
DODGE CENTER   MOSUNNY   19   9  63 S9        30.35F WCI   9
WINONA         MOSUNNY   30  10  43 CALM      30.42F
AUSTIN         MOSUNNY   19  10  68 S7        30.35F WCI  10
PRESTON        MOSUNNY   21   8  56 S8        30.37F WCI  11
$$
ABBREVIATIONS USED IN REMARKS
   TC - TEMPERATURES IN CELSIUS
  WCI - WIND CHILL INDEX
   HX - HEAT INDEX
  VSB - VISIBILITY
$$


USA.gov is the U.S. government's official web portal to all federal, state and local government web resources and services.